When you browse on this site, cookies collect data to enhance your experience and personalize the content and advertising you see.
Visit our Privacy Policy to learn more. By continuing to use the site, you agree to this use of cookies and data.
  • In Österreich
  • Länderverzeichnis
  • Für 7 Tage
  • Wassertemperatur
  • Wetterkarte
  • News
  • Widgets
  • user-avatar
    Anmelden

    Stündliche Wetter Barcelona

    Heute, 21 Januar, Dienstag

    Zeit Temperatur Niederschläge Wind Luftdruck Luftfeuchtigkeit
    00:00 +26°C° 0 mm 2 m/S 759 mmHg 91%
    01:00 +25°C° 0 mm 2 m/S 759 mmHg 91%
    02:00 +25°C° 0 mm 1 m/S 758 mmHg 92%
    03:00 +25°C° 0 mm 1 m/S 758 mmHg 92%
    04:00 +25°C° 0 mm 1 m/S 758 mmHg 91%
    05:00 +23°C° 0 mm 0 m/S 758 mmHg 91%
    06:00 +25°C° 0 mm 1 m/S 758 mmHg 89%
    07:00 +26°C° 0 mm 1 m/S 759 mmHg 86%
    08:00 +26°C° 0 mm 1 m/S 759 mmHg 84%
    09:00 +29°C° 0 mm 1 m/S 759 mmHg 74%
    10:00 +32°C° 0 mm 1 m/S 760 mmHg 64%
    11:00 +35°C° 0 mm 2 m/S 760 mmHg 54%
    12:00 +35°C° 0 mm 2 m/S 759 mmHg 52%
    13:00 +35°C° 0 mm 2 m/S 758 mmHg 51%
    14:00 +35°C° 0 mm 2 m/S 757 mmHg 50%
    15:00 +34°C° 0 mm 2 m/S 757 mmHg 57%
    16:00 +31°C° 0 mm 2 m/S 756 mmHg 64%
    17:00 +30°C° 0 mm 3 m/S 756 mmHg 71%
    18:00 +29°C° 0 mm 3 m/S 756 mmHg 75%
    19:00 +28°C° 0 mm 3 m/S 756 mmHg 78%
    20:00 +27°C° 0 mm 4 m/S 757 mmHg 82%
    21:00 +27°C° 0 mm 3 m/S 757 mmHg 83%
    22:00 +26°C° 0 mm 3 m/S 758 mmHg 85%
    23:00 +26°C° 0 mm 3 m/S 758 mmHg 87%

    Morgen, 22 Januar, Mittwoch

    Zeit Temperatur Niederschläge Wind Luftdruck Luftfeuchtigkeit
    00:00 +26°C° 0 mm 2 m/S 758 mmHg 88%
    01:00 +25°C° 0 mm 2 m/S 757 mmHg 90%
    02:00 +25°C° 0 mm 2 m/S 757 mmHg 91%
    03:00 +25°C° 0 mm 2 m/S 757 mmHg 91%
    04:00 +24°C° 0 mm 1 m/S 757 mmHg 92%
    05:00 +24°C° 0 mm 1 m/S 757 mmHg 93%
    06:00 +25°C° 0 mm 1 m/S 757 mmHg 88%
    07:00 +25°C° 0 mm 1 m/S 758 mmHg 84%
    08:00 +26°C° 0 mm 1 m/S 758 mmHg 80%
    09:00 +28°C° 0 mm 1 m/S 758 mmHg 71%
    10:00 +31°C° 0 mm 1 m/S 759 mmHg 61%
    11:00 +33°C° 0 mm 1 m/S 759 mmHg 52%
    12:00 +34°C° 0 mm 2 m/S 758 mmHg 52%
    13:00 +34°C° 0 mm 2 m/S 757 mmHg 51%
    14:00 +34°C° 0 mm 2 m/S 756 mmHg 51%
    15:00 +32°C° 0 mm 2 m/S 756 mmHg 56%
    16:00 +31°C° 0 mm 2 m/S 755 mmHg 61%
    17:00 +30°C° 0 mm 3 m/S 755 mmHg 66%
    18:00 +29°C° 0 mm 3 m/S 755 mmHg 72%
    19:00 +27°C° 0 mm 2 m/S 756 mmHg 77%
    20:00 +26°C° 0 mm 2 m/S 756 mmHg 83%
    21:00 +26°C° 0 mm 2 m/S 757 mmHg 84%
    22:00 +26°C° 0 mm 2 m/S 757 mmHg 85%
    23:00 +25°C° 0 mm 2 m/S 758 mmHg 87%

    übermorgen, 23 Januar, Donnerstag

    Zeit Temperatur Niederschläge Wind Luftdruck Luftfeuchtigkeit
    00:00 +25°C° 0 mm 2 m/S 757 mmHg 88%
    01:00 +25°C° 0 mm 1 m/S 757 mmHg 90%
    02:00 +25°C° 0 mm 1 m/S 757 mmHg 92%
    03:00 +25°C° 0 mm 1 m/S 756 mmHg 92%
    04:00 +24°C° 0 mm 1 m/S 756 mmHg 93%
    05:00 +24°C° 0 mm 1 m/S 756 mmHg 94%
    06:00 +25°C° 0 mm 1 m/S 757 mmHg 90%
    07:00 +26°C° 0 mm 1 m/S 757 mmHg 86%
    08:00 +26°C° 0 mm 1 m/S 758 mmHg 82%
    09:00 +29°C° 0 mm 1 m/S 758 mmHg 72%
    10:00 +32°C° 0 mm 1 m/S 758 mmHg 61%
    11:00 +34°C° 0 mm 1 m/S 758 mmHg 50%
    12:00 +35°C° 0 mm 2 m/S 758 mmHg 52%
    13:00 +35°C° 0 mm 3 m/S 757 mmHg 53%
    14:00 +34°C° 0 mm 3 m/S 756 mmHg 55%
    15:00 +33°C° 0 mm 3 m/S 756 mmHg 61%
    16:00 +30°C° 0 mm 3 m/S 756 mmHg 67%
    17:00 +29°C° 0 mm 3 m/S 755 mmHg 73%
    18:00 +28°C° 0 mm 3 m/S 756 mmHg 78%
    19:00 +27°C° 0 mm 3 m/S 756 mmHg 83%
    20:00 +26°C° 0 mm 3 m/S 757 mmHg 88%
    21:00 +26°C° 0 mm 3 m/S 757 mmHg 89%
    22:00 +25°C° 0 mm 2 m/S 757 mmHg 90%
    23:00 +25°C° 0 mm 2 m/S 758 mmHg 90%

    24 Januar, Freitag

    Zeit Temperatur Niederschläge Wind Luftdruck Luftfeuchtigkeit
    00:00 +25°C° 0 mm 2 m/S 757 mmHg 91%
    01:00 +25°C° 0 mm 2 m/S 757 mmHg 92%
    02:00 +24°C° 0 mm 2 m/S 757 mmHg 93%
    03:00 +24°C° 0 mm 2 m/S 757 mmHg 94%
    04:00 +24°C° 0 mm 2 m/S 757 mmHg 95%
    05:00 +24°C° 0 mm 1 m/S 757 mmHg 96%
    06:00 +25°C° 0 mm 1 m/S 758 mmHg 92%
    07:00 +25°C° 0 mm 1 m/S 759 mmHg 88%
    08:00 +26°C° 0 mm 1 m/S 759 mmHg 85%
    09:00 +28°C° 0 mm 1 m/S 759 mmHg 75%
    10:00 +31°C° 0 mm 1 m/S 760 mmHg 65%
    11:00 +33°C° 0 mm 1 m/S 760 mmHg 55%
    12:00 +34°C° 0 mm 2 m/S 759 mmHg 54%
    13:00 +34°C° 0 mm 2 m/S 758 mmHg 54%
    14:00 +34°C° 0 mm 3 m/S 758 mmHg 53%
    15:00 +33°C° 0 mm 3 m/S 757 mmHg 59%
    16:00 +31°C° 0 mm 3 m/S 757 mmHg 66%
    17:00 +29°C° 0 mm 3 m/S 756 mmHg 72%
    18:00 +28°C° 0 mm 3 m/S 757 mmHg 77%
    19:00 +27°C° 0 mm 3 m/S 757 mmHg 81%
    20:00 +26°C° 0 mm 3 m/S 758 mmHg 86%
    21:00 +26°C° 0 mm 3 m/S 758 mmHg 87%
    22:00 +26°C° 0 mm 3 m/S 759 mmHg 87%
    23:00 +25°C° 0 mm 3 m/S 759 mmHg 88%

    25 Januar, Samstag

    Zeit Temperatur Niederschläge Wind Luftdruck Luftfeuchtigkeit
    00:00 +25°C° 0 mm 2 m/S 759 mmHg 89%
    01:00 +25°C° 0 mm 2 m/S 758 mmHg 91%
    02:00 +25°C° 0 mm 2 m/S 758 mmHg 92%
    03:00 +25°C° 0 mm 2 m/S 758 mmHg 93%
    04:00 +25°C° 0 mm 1 m/S 758 mmHg 94%
    05:00 +24°C° 0 mm 1 m/S 758 mmHg 95%
    06:00 +25°C° 0 mm 1 m/S 758 mmHg 92%
    07:00 +26°C° 0 mm 1 m/S 759 mmHg 89%
    08:00 +26°C° 0 mm 1 m/S 760 mmHg 86%
    09:00 +29°C° 0 mm 1 m/S 760 mmHg 74%
    10:00 +31°C° 0 mm 1 m/S 760 mmHg 61%
    11:00 +34°C° 0 mm 1 m/S 760 mmHg 49%
    12:00 +34°C° 0.1 mm 2 m/S 759 mmHg 53%
    13:00 +34°C° 0.1 mm 3 m/S 759 mmHg 56%
    14:00 +33°C° 0.1 mm 3 m/S 758 mmHg 60%
    15:00 +31°C° 0.2 mm 3 m/S 758 mmHg 64%
    16:00 +30°C° 0.2 mm 3 m/S 758 mmHg 69%
    17:00 +29°C° 0.2 mm 3 m/S 757 mmHg 74%
    18:00 +28°C° 0 mm 3 m/S 758 mmHg 76%
    19:00 +28°C° 0 mm 3 m/S 758 mmHg 79%
    20:00 +27°C° 0 mm 3 m/S 759 mmHg 82%
    21:00 +27°C° 0.1 mm 2 m/S 759 mmHg 83%
    22:00 +26°C° 0.1 mm 2 m/S 759 mmHg 84%
    23:00 +26°C° 0.1 mm 2 m/S 759 mmHg 85%

    26 Januar, Sonntag

    Zeit Temperatur Niederschläge Wind Luftdruck Luftfeuchtigkeit
    00:00 +26°C° 0.1 mm 2 m/S 759 mmHg 87%
    01:00 +25°C° 0.1 mm 2 m/S 759 mmHg 89%
    02:00 +25°C° 0.1 mm 1 m/S 758 mmHg 91%
    03:00 +25°C° 0 mm 1 m/S 758 mmHg 92%
    04:00 +25°C° 0 mm 2 m/S 758 mmHg 93%
    05:00 +24°C° 0 mm 2 m/S 758 mmHg 94%
    06:00 +25°C° 0 mm 1 m/S 759 mmHg 90%
    07:00 +26°C° 0 mm 1 m/S 759 mmHg 87%
    08:00 +26°C° 0 mm 1 m/S 760 mmHg 84%
    09:00 +29°C° 0 mm 1 m/S 760 mmHg 73%
    10:00 +32°C° 0 mm 1 m/S 760 mmHg 62%
    11:00 +34°C° 0 mm 1 m/S 760 mmHg 51%
    12:00 +35°C° 0 mm 2 m/S 759 mmHg 51%
    13:00 +35°C° 0 mm 2 m/S 759 mmHg 51%
    14:00 +34°C° 0 mm 3 m/S 758 mmHg 51%
    15:00 +33°C° 0 mm 3 m/S 757 mmHg 56%
    16:00 +32°C° 0 mm 4 m/S 757 mmHg 60%
    17:00 +30°C° 0 mm 4 m/S 757 mmHg 64%
    18:00 +28°C° 0 mm 4 m/S 757 mmHg 70%
    19:00 +27°C° 0 mm 4 m/S 758 mmHg 75%
    20:00 +26°C° 0 mm 4 m/S 758 mmHg 81%
    21:00 +26°C° 0 mm 4 m/S 758 mmHg 83%
    22:00 +25°C° 0 mm 4 m/S 759 mmHg 84%
    23:00 +25°C° 0 mm 3 m/S 759 mmHg 86%
    Mehr zeigen